Location: Bouchavesnes-Bergen
(49.9859°N, 2.9203°E)
Time: 10:49:28
(UTC+00:00)

Cosmos 1484 Rocket - Pass Details

Date: 09 March 2021
Orbit: 505 x 558 km, 97.4° (Epoch: 13 April)

Event Time Altitude Azimuth Distance (km) Brightness Sun altitude
Rises 04:26:28 0° 13° (NNE) 2,623 6.7 -18.1°
Reaches altitude 10° 04:28:34 10° 14° (NNE) 1,732 5.7 -17.8°
Maximum altitude 04:32:18 86° 104° (ESE) 515 2.6 -17.2°
Enters shadow 04:35:43 12° 193° (SSW) 1,602 4.9 -16.7°
